Simultaneous Nadir Overpasses (SNOs) Predictions

Prediction of SNOs between GOES-16 and LANDSAT-8 Satellite Orbit:

Table of predicted SNOs for the next 14.0 days since TLE Epoch: 7/18/2020
Index Date Time (GOES-16) GOES-16 Lat,Lon LANDSAT-8 Lat,Lon Distance(km) Time Diff (sec)
1 07/19/2020 02:57:20 0.01, -75.20 0.75, -71.72 395.44 80
2 07/19/2020 15:21:15 -0.01, -75.21 0.32, -76.88 189.06 80
3 07/21/2020 15:06:24 -0.02, -75.22 -0.28, -73.92 147.89 80
4 07/22/2020 03:30:29 0.02, -75.21 -0.79, -79.12 443.63 80
5 07/23/2020 14:54:14 -0.03, -75.23 -0.95, -70.97 485.30 80
6 07/24/2020 03:18:18 0.03, -75.22 -0.18, -76.15 106.03 80
7 07/26/2020 03:03:28 0.04, -75.24 0.49, -73.21 232.31 80
8 07/26/2020 15:27:23 -0.03, -75.26 0.64, -78.35 351.71 80
9 07/28/2020 15:15:13 -0.03, -75.29 -0.03, -75.41 12.84 80
10 07/30/2020 15:00:22 -0.03, -75.32 -0.64, -72.44 326.64 80
11 07/31/2020 03:24:26 0.03, -75.31 -0.49, -77.63 264.15 80
